Regional Weather Roundup
Issued by NWS Grand Forks, ND

Home | Current Version | Previous Version | Graphics & Text | Print | Product List | Glossary On
Versions: 1 2 3 4 5 6 7 8 9 10 11 12 13 14 15 16 17 18 19 20 21 22 23 24 25 26 27 28 29 30 31 32 33 34 35 36 37 38 39 40 41 42 43 44 45 46 47 48 49 50
000
ASUS43 KFGF 240910
RWRFGF
PRAIRIE TO PINES  WEATHER ROUNDUP
NATIONAL WEATHER SERVICE EASTERN NORTH DAKOTA/GRAND FORKS ND
400 AM CDT TUE APR 24 2018

 **SATELLITE DATA USED TO AUGMENT SKY COVER AT AUTOMATED STATIONS**
 *****  WEATHER ACROSS EASTERN NORTH DAKOTA  *****

CITY           SKY/WX    TMP DP  RH WIND       PRES   REMARKS
GRAND FORKS    CLOUDY    42  36  79 N9        30.29R
GRAND FRKS AFB CLOUDY    44  33  67 N16       30.29R
GRAND FRKS NWS   N/A     44  36  73 N7        30.26R
DEVILS LAKE    CLOUDY    39  31  72 N10       30.34R
FARGO          LGT RAIN  47  38  71 N16       30.23R
WAHPETON ARPT  CLOUDY    46  36  66 N13       30.19S
$$

 ***** WEATHER ACROSS CENTRAL AND WESTERN NORTH DAKOTA  *****

CITY           SKY/WX    TMP DP  RH WIND       PRES   REMARKS
BISMARCK       LGT RAIN  41  35  79 N13G24    30.36R
MINOT          FAIR      32  24  72 NW9       30.38S WCI  24
JAMESTOWN      LGT RAIN  43  35  73 N13       30.29R
MINOT AFB      FAIR      27  22  83 NW8       30.38R WCI  19
GARRISON         N/A     36  30  79 N12       30.37S
WILLISTON      FAIR      25  21  85 CALM      30.44S
DICKINSON      CLOUDY    37  30  75 N7        30.37R
HETTINGER      MIX PCPN  33  31  92 N22G30    30.37R WCI  21
$$

 *****  OTHER AIRPORT OBSERVATIONS IN OUR AREA  *****

CITY           SKY/WX    TMP DP  RH WIND       PRES   REMARKS
WALHALLA       FAIR      39  32  75 N10       30.33R
GRAFTON AIRPOR FAIR      41  34  75 N13       30.33R
VALLEY CITY AR CLOUDY    43  39  87 N14G20    30.29R
CANDO          FAIR      36  28  75 N7        30.37R
CAVALIER APRT    N/A     41  32  70 N12       30.32R
GWINNER          N/A     46  41  81 N18       30.22R
SHEYENNE NWR     N/A     48  38  67 N12       29.95S
ROLLA          FAIR      32  28  86 NW9       30.36R WCI  24
 ***** THE ABOVE OBSERVATIONS ARE NON NWS ARE NOT QUALITY
       CONTROLLED AND MAY MIS-REPORT RAIN FOR SNOW...
$$

  *****  WEATHER ACROSS NORTHERN MINNESOTA  *****

CITY           SKY/WX    TMP DP  RH WIND       PRES   REMARKS
FLAG ISLAND    FAIR      37  30  75 NW10      30.26R
WARROAD        CLOUDY    43  32  65 N8        30.27R
ROSEAU         MOCLDY    43  36  75 N12       30.27R
HALLOCK        FAIR      41  34  75 N13       30.30R
THF RVR FALLS  CLOUDY    44  33  65 N15       30.26R
BAUDETTE       CLOUDY    39  31  72 N10       30.23R
WASKISH        FAIR      43  32  65 NW5       30.20S
CROOKSTON      CLOUDY    43  37  81 N13       30.27R
STEPHEN NDAWN    N/A     43  34  70 NW8         N/A
GREENBUSH NDAW   N/A     39  34  81 N6          N/A
$$
  *****  WEATHER ACROSS CENTRAL AND WEST MINNESOTA  *****

CITY           SKY/WX    TMP DP  RH WIND       PRES   REMARKS
FOSSTON        CLOUDY    43  34  70 N12       30.22R
BEMIDJI        CLOUDY    40  29  64 NW6       30.19R
PARK RAPIDS    CLOUDY    43  33  68 N6        30.17S
ELBOW LAKE     CLOUDY    46  36  66 E6        30.17S
WADENA         FAIR      43  32  65 N6        30.17S
DETROIT LAKES  FAIR      45  34  65 CALM      30.19F
MOORHEAD       LGT RAIN  46  39  76 N16       30.23R
FERGUS FALLS   FAIR      48  34  57 N5        30.16S
MORRIS MN      FAIR      43  37  81 NW7       30.16S
STAPLES        FAIR      37  30  75 CALM      30.17R
$$
  *****  WEATHER ELSEWHERE ACROSS MINNESOTA  *****

CITY           SKY/WX    TMP DP  RH WIND       PRES   REMARKS
DULUTH         FAIR      44  28  53 CALM      30.14R
INTRNTL FALLS  CLOUDY    32  28  85 CALM      30.19R
ELY            FAIR      30  27  86 CALM      30.16S
CLOQUET        FAIR      43  27  52 CALM      30.14S
WHEATON        CLOUDY    46  41  81 NW5       30.20S
BRAINERD       FAIR      41  28  60 N5        30.16R
HIBBING        FAIR      31  26  82 NW3       30.15R
ALEXANDRIA     MOCLDY    46  33  60 N7        30.16S
SAINT CLOUD    FAIR      44  36  73 N6        30.13R
MINNEAPOLIS    FAIR      49  40  71 CALM      30.12F
$$

  *****  WEATHER ACROSS SOUTH DAKOTA  *****

CITY           SKY/WX    TMP DP  RH WIND       PRES   REMARKS
SIOUX FALLS    CLOUDY    47  41  80 NE6       30.13F
BROOKINGS      CLOUDY    49  40  71 SE3       30.14F
WATERTOWN      CLOUDY    48  41  76 N8        30.16R
HURON          CLOUDY    53  44  71 S7        30.13F
SISSETON         N/A     49  42  77 NW12      30.18S
ABERDEEN       LGT RAIN  48  45  89 N15       30.22R
MITCHELL       CLOUDY    50  44  80 NW5       30.14R
PIERRE         CLOUDY    49  46  90 S6        30.07F
MOBRIDGE       RAIN      43  40  89 N23G32    30.21R
RAPID CITY     LGT SNOW  34  32  92 NW30G40   30.32R FOG     WCI  20
$$

  *****  SOME WEATHER IN NEARBY STATES *****

CITY           SKY/WX    TMP DP  RH WIND       PRES   REMARKS
GLASGOW MT     FAIR      36  24  62 S5        30.44R
GREAT FALLS MT FAIR      28  23  81 VRB3      30.46R
CHEYENNE WY    LGT SNOW  30  28  92 MISG      30.30S FOG
SCOTTSBLUFF NE CLOUDY    38  33  82 NW17      30.32R
OMAHA NE       FAIR      45  37  73 N7        30.12S
DES MOINES IA  FAIR      48  34  58 NW6       30.12R
DAVENPORT IA   FAIR      47  32  56 N7        30.09S
CHICAGO IL     CLOUDY    50  36  58 NE5       30.06R
EAU CLAIRE WI  FAIR      37  32  82 CALM      30.10F
LA CROSSE WI   FAIR      44  34  67 SE3       30.11F
$$

  *****  SOME NATIONAL WEATHER *****

CITY           SKY/WX    TMP DP  RH WIND       PRES   REMARKS
LA GUARDIA NY  FAIR      47  42  83 SE5       30.40S
RALEIGH NC     LGT RAIN  54  53  97 E9        30.08F
ATLANTA GA     FOG       59  59 100 W6        29.84R VSB 1
NEW ORLEANS LA FAIR      60  59  96 SW3       29.98S
OKLAHOMA CITY  FAIR      56  48  74 NE3       30.05S
ALBUQUERQUE NM FAIR      54  23  30 SE8       30.08S
SALT LAKE CITY FAIR      44  37  76 SW5       30.22R
LOS ANGELES CA CLOUDY    56  53  90 S3        30.00F FOG
BOISE ID       FAIR      48  38  68 SE15      30.29R
SEATTLE WA     FAIR      56  33  42 NE8       30.22F
$$

*** WEATHER ACROSS MANITOBA...SASKATCHEWAN AND ONTARIO ***
                ***ONTARIO***

CITY           SKY/WX    TMP DP  RH WIND       PRES   REMARKS
GERALDTON      PTCLDY    30  27  86 W2        30.11S
THUNDER BAY    PTCLDY    36  28  75 NW2       30.16S
SIOUX LOOKOUT  PTCLDY    28  27  93 N3        30.17S
TORONTO        MOCLDY    45  28  53 SW3       30.17S
BIG TROUT LK   CLOUDY    25  18  74 NW9       30.15R WCI  15
PICKLE LAKE    NOT AVBL
DRYDEN         CLOUDY    34  28  80 W7        30.19S
KENORA         MOCLDY    36  28  75 N8        30.23R
$$
                *** MANITOBA***

CITY           SKY/WX    TMP DP  RH WIND       PRES   REMARKS
BRANDON        PTCLDY    28  25  86 NW5       30.36S WCI  23
DAUPHIN        CLEAR     28  25  86 VRB2      30.40R
ISLAND LAKE    NOT AVBL
PILOT MOUND      N/A     30  25  80 NW3         N/A
THE PAS        CLEAR     25  19  80 SE3       30.39R
THOMPSON       PTCLDY     9   7  92 CALM      30.35F
WINNIPEG       PTCLDY    27  25  93 N5        30.33R WCI  21
LYNN LAKE      CLEAR     12  12 100 S5        30.28F WCI   4
CHURCHILL      PTCLDY    10   9  92 W7        30.31S WCI   0
GILLAM         CLOUDY    16  10  79 NW7       30.32S WCI   6
$$
                ***SASKATCHEWAN***

CITY           SKY/WX    TMP DP  RH WIND       PRES   REMARKS
ESTEVAN        CLEAR     28  21  74 W9        30.41S WCI  20
KINDERSLEY     CLEAR     34  27  75 SW7       30.35F
LLOYDMINSTER   MOCLDY    37  28  70 SW9       30.27F
PRINCE ALBERT  PTCLDY    30  27  86 E6        30.36F WCI  24
REGINA         CLEAR     30  23  74 SW3       30.40S
YORKTON        PTCLDY    30  25  80 N3        30.38R
N. BATTLEFORD  CLEAR     34  25  69 SE5       30.35S
LA RONGE       CLEAR     28  25  86 S6        30.31F WCI  22
SASKATOON      CLEAR     32  25  74 S6        30.37F
SWIFT CURRENT  CLEAR     32  23  69 S10       30.39S WCI  24
$$
NOTE: THESE ARE AUTOMATED STATIONS WITH LIMITED QUALITY CONTROL
      "FAIR" INDICATES FEW OR NO CLOUDS BELOW 12,000 FEET WITH NO
      SIGNIFICANT WEATHER AND/OR OBSTRUCTIONS TO VISIBILITY.
      SKY/WX - SKY CONDITION AND SIGNIFICANT WEATHER.
      TMP - AIR TEMPERATURE.    DP   - DEWPOINT TEMPERATURE.
      RH  - RELATIVE HUMIDITY.  PRES - PRESSURE.
      HX  - HEAT INDEX.         WCI  - WIND CHILL INDEX.
$




USA.gov is the U.S. government's official web portal to all federal, state and local government web resources and services.